Other Public Products
Issued by NWS Grand Forks, ND

Home | Current Version | Previous Version | Graphics & Text | Print | Product List | Glossary On
Versions: 1 2 3 4 5 6 7 8 9 10 11 12 13 14 15 16 17 18 19 20 21 22 23 24 25 26 27 28 29 30 31 32 33 34 35 36 37 38 39 40 41 42 43 44 45 46 47 48 49 50
000
FPUS83 KFGF 260110
OPUFGF
PRAIRIE TO PINES WEATHER ROUNDUP
NATIONAL WEATHER SERVICE EASTERN NORTH DAKOTA/GRAND FORKS ND
800 PM CDT SAT MAR 25 2017

 **SATELLITE DATA USED TO AUGMENT SKY COVER AT AUTOMATED STATIONS**
 *****  WEATHER ACROSS EASTERN NORTH DAKOTA  *****

CITY           SKY/WX    TMP DP  RH WIND       PRES   REMARKS
GRAND FORKS    MOCLDY    35  33  92 S9        30.02R
GRAND FORKS AF FAIR      34  32  92 S12       30.01F
GRAND CITY NWS NOT AVBL
BUXTON         NOT AVBL
DEVILS LAKE    MOCLDY    37  33  85 S9        29.96R
FARGO          FAIR      36  32  85 SW5       30.03S
WAHPETON ARPT  FAIR      37  32  81 S9        30.04S
$$

 *****  WEATHER ACROSS CENTRAL AND WESTERN NORTH DAKOTA  *****

CITY           SKY/WX    TMP DP  RH WIND       PRES   REMARKS
JAMESTOWN      FAIR      37  33  85 SE13      29.96S
BISMARCK       FAIR      49  34  56 E3        29.91S
MINOT          FAIR      48  37  65 S7        29.87R
MINOT AFB      CLOUDY    44  38  80 S6        29.86R
GARRISON         N/A     43  35  73 SE5       29.88S
WILLISTON      FAIR      56  29  35 S6        29.87R
DICKINSON      CLOUDY    52  28  39 NW6       29.87R
HETTINGER      CLOUDY    55  35  47 E6        29.88R
$$

 *****  OTHER OBSERVATIONS NORTHEAST NORTH DAKOTA  *****

CITY           SKY/WX    TMP DP  RH WIND       PRES   REMARKS
WALHALLA       NOT AVBL
LANGDON        MOCLDY    36  36 100 S17       29.94S
CAVALIER         N/A     34  32  93 S16       29.98S WCI  23
GRAFTON        FAIR      34  34 100 S9        30.03S
CANDO          NOT AVBL
FORT TOTTEN      N/A     37  37  99 S10       29.95S
ROLLA          FAIR      34  34 100 S9        29.91S
RUGBY            N/A     37  36  93 S8        29.90S
 ***** THE ABOVE OBSERVATIONS ARE NON NWS ARE NOT QUALITY
        CONTROLLED AND MAY MIS-REPORT RAIN FOR SNOW...
$$

 *****  OTHER OBSERVATIONS SOUTHEAST NORTH DAKOTA *****

CITY           SKY/WX    TMP DP  RH WIND       PRES   REMARKS
COOPERSTOWN    FAIR      34  32  93 SE13      29.99F WCI  25
VALLEY CITY    FAIR      34  34 100 SE12      30.01F
OAKES          NOT AVBL
GWINNER        PTCLDY    34  30  86 MISG      30.02R
SHEYENNE NWR     N/A     33  29  84 S3        29.95S
BUFFALO        NOT AVBL
WYNDMERE       NOT AVBL
 ***** THE ABOVE OBSERVATIONS ARE NON NWS ARE NOT QUALITY
       CONTROLLED AND MAY MIS-REPORT RAIN FOR SNOW...
$$

  *****  WEATHER ACROSS NORTHERN MINNESOTA  *****

CITY           SKY/WX    TMP DP  RH WIND       PRES   REMARKS
FLAG ISLAND    FAIR      37  28  70 SE8       30.03F
WARROAD        FAIR      37  30  75 S7        30.04S
ROSEAU         FAIR      39  30  70 SE9       30.03S
HALLOCK        FAIR      34  34 100 S7        30.00F
THF RVR FALLS  FAIR     N/A N/A N/A SE7       30.03S
HALSTAD          N/A     35  32  88 W5          N/A
FOSSTON        FAIR      39  30  70 E6        30.03S
BAUDETTE       FAIR      39  27  62 SE9       30.05S
WASKISH        FAIR      36  28  75 SE5       30.08S
CROOKSTON      FAIR      36  36 100 SW5       30.04F
$$
  *****  WEATHER ACROSS CENTRAL AND WEST MINNESOTA  *****

CITY           SKY/WX    TMP DP  RH WIND       PRES   REMARKS
BEMIDJI        FAIR      35  28  77 E8        30.06S
PARK RAPIDS    FAIR      40  27  59 SE8       30.05S
WADENA         FAIR      39  28  65 E6        30.05S
DETROIT LAKES  FAIR      41  32  70 SE9       30.04S
MOORHEAD       FAIR      37  34  87 SW5       30.04S
FERGUS FALLS   FAIR      37  30  75 S8        30.07S
ELBOW LAKE     FAIR      35  32  87 E6        30.05S
MORRIS MN      CLOUDY    37  34  87 E5        30.04S
STAPLES        FAIR      39  27  60 E3        30.06S
WHEATON        CLOUDY    37  34  87 SE9       30.06F
$$
  *****  WEATHER ELSEWHERE ACROSS MINNESOTA  *****

CITY           SKY/WX    TMP DP  RH WIND       PRES   REMARKS
DULUTH         CLOUDY    31  29  92 E16       30.14S WCI  20
INTRNTL FALLS  FAIR      36  26  67 SE5       30.10S
ELY            CLOUDY    30  25  80 SE14      30.17S WCI  20
CLOQUET        CLOUDY    30  28  93 E10G18    30.14S WCI  21
BRAINERD       FAIR      35  28  75 NE12      30.08S
HIBBING        CLOUDY    30  26  85 SE9       30.14F WCI  22
ALEXANDRIA     FAIR      37  31  78 SE3       30.05S
SAINT CLOUD    CLOUDY    43  34  70 E7        30.06S
MINNEAPOLIS    CLOUDY    40  35  83 E9        30.06S
$$

  *****  WEATHER ACROSS SOUTH DAKOTA  *****

CITY           SKY/WX    TMP DP  RH WIND       PRES   REMARKS
SIOUX FALLS    CLOUDY    41  38  89 E13       29.99S
BROOKINGS      CLOUDY    38  36  92 E9        29.99S FOG
WATERTOWN      CLOUDY    35  34  96 E9        30.00F FOG
HURON          CLOUDY    42  37  82 E10       29.98S
SISSETON         N/A     37  34  89 S9        30.02F
ABERDEEN       FAIR      38  31  76 E12       29.99R
MITCHELL       CLOUDY    43  38  82 E10       29.98S
PIERRE         FAIR      48  33  56 E16       29.89S
MOBRIDGE       FAIR      50  31  48 E13       29.88S
RAPID CITY     FAIR      56  34  43 N10       29.80F
$$

  *****  SOME WEATHER IN NEARBY STATES *****

CITY           SKY/WX    TMP DP  RH WIND       PRES   REMARKS
GLASGOW MT     FAIR      56  24  29 CALM      29.87R
GREAT FALLS MT FAIR      50  18  28 W13       29.87F
CHEYENNE WY    FAIR      53  23  31 S10       29.87S
SCOTTSBLUFF NE FAIR      60  32  34 SE8       29.81R
OMAHA NE       DRIZZLE   42  37  82 NE10      29.93F FOG
DES MOINES IA  CLOUDY    44  41  89 NE8       29.90R
DAVENPORT IA   CLOUDY    47  45  93 E16       29.90S
CHICAGO IL     LGT RAIN  44  42  93 NE9       29.98S FOG
EAU CLAIRE WI  CLOUDY    38  35  89 NE9       30.07F
LA CROSSE WI   LGT RAIN  39  35  86 E9        30.05R FOG
$$

  *****  SOME NATIONAL WEATHER *****

CITY           SKY/WX    TMP DP  RH WIND       PRES   REMARKS
LA GUARDIA NY  CLOUDY    45  38  76 NE10      30.36R
RALEIGH NC     MOCLDY    66  49  54 S3        30.22R
ATLANTA GA     FAIR      70  50  49 SE6       30.10R
NEW ORLEANS LA FAIR      64  61  90 SE9       30.00S
OKLAHOMA CITY  FAIR      54  43  66 E5        29.91S
ALBUQUERQUE NM FAIR      68  17  14 S28G33    29.81F
SALT LAKE CITY MOCLDY    43  38  82 NW7       29.99S
LOS ANGELES CA PTSUNNY   61  54  77 W12G18    30.03S
BOISE ID       FAIR      55  28  35 W6        29.99F
SEATTLE WA     PTSUNNY   49  36  61 SW8       30.08F
$$

*** WEATHER ACROSS MANITOBA...SASKATCHEWAN AND ONTARIO ***
                ***ONTARIO***

CITY           SKY/WX    TMP DP  RH WIND       PRES   REMARKS
GERALDTON      PTCLDY    28   5  37 E8        30.29F WCI  20
THUNDER BAY    MOCLDY    27  21  80 E5        30.29S WCI  21
SIOUX LOOKOUT  MOCLDY    37  16  41 SE8       30.11F
TORONTO        MOCLDY    36  32  87 E6        30.36S
BIG TROUT LK   MOCLDY    27   5  39 SE13G18   30.14F WCI  16
PICKLE LAKE    CLOUDY    30  -2  24 SE13      30.15F WCI  20
DRYDEN         MOCLDY    37  23  56 SE12      30.08F
KENORA         MOCLDY    36  25  64 S13G18    30.03F
$$
                *** MANITOBA***

CITY           SKY/WX    TMP DP  RH WIND       PRES   REMARKS
BRANDON        CLOUDY    36  32  87 S6        29.87R
DAUPHIN        CLEAR     41  34  75 SW14      29.79R
ISLAND LAKE    MOCLDY    37  25  60 SE20G26   29.88F
PILOT MOUND      N/A     34  32  93 S15         N/A  WCI  24
THE PAS        DRIZZLE   34  32  93 W17G24    29.72R WCI  23
THOMPSON       HAIL      28  27  93 E8        29.75F WCI  20
WINNIPEG       MOCLDY    36  32  87 S18       29.97F
LYNN LAKE      LGT SNOW  21  19  93 NE9       29.80R VSB 3/4 WCI  11
CHURCHILL      MOCLDY    12   7  79 SE13      30.12F WCI  -3
GILLAM         SNOW      28  27  93 E6        29.93F VSB 3/8 WCI  22
$$
                ***SASKATCHEWAN***

CITY           SKY/WX    TMP DP  RH WIND       PRES   REMARKS
ESTEVAN        CLOUDY    43  36  75 N10       29.86R
KINDERSLEY     MOCLDY    46  36  66 NE10G18   29.77R
LLOYDMINSTER   PTCLDY    36  30  80 CALM      29.79R
PRINCE ALBERT  CLOUDY    34  30  86 NW6       29.82R
REGINA         MOCLDY    45  36  70 NW5       29.84R
YORKTON        CLEAR     37  32  81 W8        29.83R


USA.gov is the U.S. government's official web portal to all federal, state and local government web resources and services.